(69786) = 1998 QS77 = 1999 XS103

Discovered at Socorro on 1998-08-24 by LINEAR.

Orbit

Orbit type: Main Belt

Note: WebGL enabled browser required.

epoch2023-09-13.0
epoch JD2460200.5
perihelion date2019-08-06.24184
perihelion JD2458701.74184
argument of perihelion (°)111.84345
ascending node (°)285.21382
inclination (°)9.04610
eccentricity0.0888607
perihelion distance (AU)2.6971210
Tisserand w.r.t. Jupiter3.2
ΔV w.r.t. Earth (km/sec)10.6
semimajor axis (AU)2.9601631
mean anomaly (°)290.04270
mean daily motion (°/day)0.19352200
aphelion distance (AU)3.223
period (years)5.09
P-vector [x]0.78689335
P-vector [y]0.49205506
P-vector [z]0.37239854
Q-vector [x]-0.59814736
Q-vector [y]0.75656591
Q-vector [z]0.26424942
absolute magnitude14.7
phase slope0.15
uncertainty0
referenceMPEC 2024-A48
observations used1215
oppositions19
arc length (days)9234
first opposition used1998
last opposition used2023
residual rms (arc-secs)0.64
perturbers coarse indicatorM-v
perturbers precise indicator003Ek
first observation date used1998-08-24.0
last observation date used2023-12-05.0
computer nameMPCLINUX
JD of orbit computation2456639.603948
perihelion JD uncertainty (days)2.8089E-04
argument of perihelion uncertainty (°)6.7162E-05
ascending node uncertainty (°)3.7995E-05
inclination uncertainty (°)6.6303E-06
eccentricity uncertainty 5.2275E-08
perihelion distance uncertainty (AU)1.6769E-07
Minimum Orbit Intersection Distances (in AU)
for orbit epoch: 2460200.5, reference: E2024-A48
Mercury2.37795
Venus1.98956
Earth1.72053
Mars1.21283
Jupiter2.14307
Saturn6.21112
Uranus15.358
Neptune27.1868

Observations

1241 total observations over interval: 1998 08 24.38445 – 2023 12 05.231149
These data are available for download (format description).

Date (UT) J2000 RA J2000 Dec Magn Location Ref
1998 08 24.38445 23 54 17.51 +12 49 31.7 19.1   704 – Lincoln Laboratory ETS, New Mexico MPS 2076
1998 08 24.40080 23 54 16.90 +12 49 31.8 19.1   704 – Lincoln Laboratory ETS, New Mexico MPS 2076
1998 08 24.41708 23 54 16.56 +12 49 32.2 19.1   704 – Lincoln Laboratory ETS, New Mexico MPS 2076
1998 08 24.43337 23 54 15.97 +12 49 34.2 19.3   704 – Lincoln Laboratory ETS, New Mexico MPS 2076
1998 08 24.44977 23 54 15.31 +12 49 35.1 19.3   704 – Lincoln Laboratory ETS, New Mexico MPS 2076
1998 08 27.38897 23 52 33.28 +12 51 08.2 18.6   704 – Lincoln Laboratory ETS, New Mexico MPS 2076
1998 08 27.40648 23 52 32.66 +12 51 08.3 19.1   704 – Lincoln Laboratory ETS, New Mexico MPS 2076
1998 08 27.44141 23 52 31.36 +12 51 09.3 19.7   704 – Lincoln Laboratory ETS, New Mexico MPS 2076
1998 08 27.45888 23 52 30.48 +12 51 11.0 19.7   704 – Lincoln Laboratory ETS, New Mexico MPS 2076
1998 09 18.35097 23 36 16.81 +12 10 51.0 18.3 R 699 – Lowell Observatory-LONEOS MPS 51449
1998 09 18.37581 23 36 15.52 +12 10 45.1   699 – Lowell Observatory-LONEOS MPS 51449
1998 09 18.40064 23 36 14.38 +12 10 38.8   699 – Lowell Observatory-LONEOS MPS 51449
1998 09 19.26151 23 35 32.56 +12 07 21.4 19.0   704 – Lincoln Laboratory ETS, New Mexico MPS 2572
1998 09 19.28269 23 35 31.47 +12 07 17.2 19.0   704 – Lincoln Laboratory ETS, New Mexico MPS 2572
1998 09 19.30372 23 35 30.49 +12 07 12.6 19.0   704 – Lincoln Laboratory ETS, New Mexico MPS 2572
1998 09 23.25126 23 32 19.45 +11 50 50.7 18.8   704 – Lincoln Laboratory ETS, New Mexico MPS 2572
1998 09 23.27482 23 32 18.25 +11 50 44.2 18.5   704 – Lincoln Laboratory ETS, New Mexico MPS 2572
1998 09 23.29836 23 32 17.06 +11 50 37.4 18.4   704 – Lincoln Laboratory ETS, New Mexico MPS 2572
1999 12 07.39862 07 30 22.90 +23 23 02.5 18.9   704 – Lincoln Laboratory ETS, New Mexico MPS 8055
1999 12 07.41333 07 30 22.43 +23 23 00.0 18.7   704 – Lincoln Laboratory ETS, New Mexico MPS 8055
1999 12 07.42802 07 30 21.87 +23 23 00.1 18.6   704 – Lincoln Laboratory ETS, New Mexico MPS 8055
1999 12 10.33652 07 28 35.97 +23 19 22.5 19.1   704 – Lincoln Laboratory ETS, New Mexico MPS 8055
1999 12 10.35115 07 28 35.38 +23 19 22.6 19.4   704 – Lincoln Laboratory ETS, New Mexico MPS 8055
1999 12 10.36574 07 28 34.74 +23 19 20.4 19.2   704 – Lincoln Laboratory ETS, New Mexico MPS 8055
1999 12 10.38047 07 28 34.16 +23 19 19.2 19.4   704 – Lincoln Laboratory ETS, New Mexico MPS 8055
1999 12 10.39510 07 28 33.54 +23 19 17.8 19.2   704 – Lincoln Laboratory ETS, New Mexico MPS 8055
2000 01 03.29593 07 08 01.57 +22 49 48.7 17.8 V 691 – Steward Observatory, Kitt Peak-Spacewatch MPS 8459
2000 01 03.29715 07 08 01.47 +22 49 49.1 17.9   704 – Lincoln Laboratory ETS, New Mexico MPS 8459
2000 01 03.31186 07 08 00.54 +22 49 48.5 18.0   704 – Lincoln Laboratory ETS, New Mexico MPS 8459
2000 01 03.32021 07 08 00.06 +22 49 47.8 17.6 V 691 – Steward Observatory, Kitt Peak-Spacewatch MPS 8459
2000 01 03.32656 07 07 59.70 +22 49 46.8 18.4   704 – Lincoln Laboratory ETS, New Mexico MPS 8459
2000 01 03.34131 07 07 58.75 +22 49 46.1 18.1   704 – Lincoln Laboratory ETS, New Mexico MPS 8459
2000 01 03.34571 07 07 58.53 +22 49 44.6 17.7 V 691 – Steward Observatory, Kitt Peak-Spacewatch MPS 8459
2000 01 03.35613 07 07 57.91 +22 49 43.9 17.9   704 – Lincoln Laboratory ETS, New Mexico MPS 8459
2000 01 04.29259 07 07 02.50 +22 48 25.3 17.9   704 – Lincoln Laboratory ETS, New Mexico MPS 8459
2000 01 04.30724 07 07 01.65 +22 48 23.3 17.8   704 – Lincoln Laboratory ETS, New Mexico MPS 8459
2000 01 04.32179 07 07 00.75 +22 48 22.4 18.1   704 – Lincoln Laboratory ETS, New Mexico MPS 8459
2000 01 04.33642 07 06 59.87 +22 48 21.1 18.0   704 – Lincoln Laboratory ETS, New Mexico MPS 8459
2000 01 04.35104 07 06 58.99 +22 48 19.4 18.3   704 – Lincoln Laboratory ETS, New Mexico MPS 8459
2000 01 08.22361 07 03 10.03 +22 42 41.9 18.1   704 – Lincoln Laboratory ETS, New Mexico MPS 8459
2000 01 08.23867 07 03 09.15 +22 42 40.3 18.3   704 – Lincoln Laboratory ETS, New Mexico MPS 8459
2000 01 08.25429 07 03 08.15 +22 42 38.6 18.1   704 – Lincoln Laboratory ETS, New Mexico MPS 8459
2000 01 08.26948 07 03 07.25 +22 42 38.0 17.9   704 – Lincoln Laboratory ETS, New Mexico MPS 8459
2000 01 08.28455 07 03 06.34 +22 42 36.1 18.1   704 – Lincoln Laboratory ETS, New Mexico MPS 8459
2000 01 26.09166 06 47 15.49 +22 12 28.0 18.3 V 691 – Steward Observatory, Kitt Peak-Spacewatch MPS 9859
2000 01 26.11529 06 47 14.40 +22 12 25.5 18.3 V 691 – Steward Observatory, Kitt Peak-Spacewatch MPS 9859
2000 01 26.13780 06 47 13.35 +22 12 23.6 17.8 V 691 – Steward Observatory, Kitt Peak-Spacewatch MPS 9859
2001 03 20.40713 12 07 54.87 -14 52 36.6 20.5   608 – Haleakala-AMOS MPS 27426
2001 03 20.41776 12 07 54.29 -14 52 34.6 20.5   608 – Haleakala-AMOS MPS 27426
2001 03 20.42862 12 07 53.77 -14 52 31.6 20.3   608 – Haleakala-AMOS MPS 27426
2001 03 24.25313 12 04 50.08 -14 36 36.1 18.7 R 699 – Lowell Observatory-LONEOS MPS 27426
2001 03 24.27197 12 04 49.19 -14 36 31.0   699 – Lowell Observatory-LONEOS MPS 27426
2001 03 24.29068 12 04 48.27 -14 36 25.9   699 – Lowell Observatory-LONEOS MPS 27426
2001 03 24.30937 12 04 47.30 -14 36 21.1   699 – Lowell Observatory-LONEOS MPS 27426
2001 03 29.35685 12 00 46.99 -14 12 47.2 19.8   608 – Haleakala-AMOS MPS 27426
2001 03 29.36771 12 00 46.49 -14 12 44.0 20.3   608 – Haleakala-AMOS MPS 27426
2001 03 29.37898 12 00 45.92 -14 12 40.2 19.6   608 – Haleakala-AMOS MPS 27426
2003 08 24.31439 23 12 23.54 +07 44 48.7 18.2   644 – Palomar Mountain/NEAT MPS 110772
2003 08 24.39302 23 12 20.05 +07 44 45.1 18.1   644 – Palomar Mountain/NEAT MPS 110772
2003 08 24.45751 23 12 17.19 +07 44 42.1 18.3   644 – Palomar Mountain/NEAT MPS 110772
2003 08 28.95326 23 08 57.52 +07 39 18.1 17.8 R 113 – Volkssternwarte Drebach, Schoenbrunn MPS 83170
2003 08 28.95716 23 08 57.31 +07 39 17.5 18.2 R 113 – Volkssternwarte Drebach, Schoenbrunn MPS 83170
2003 08 28.96105 23 08 57.07 +07 39 17.0 18.0 R 113 – Volkssternwarte Drebach, Schoenbrunn MPS 83170
2003 09 03.30440 23 04 45.01 +07 28 31.7 18.5   704 – Lincoln Laboratory ETS, New Mexico MPS 83892
2003 09 03.31651 23 04 44.40 +07 28 30.0 18.7   704 – Lincoln Laboratory ETS, New Mexico MPS 83892
2003 09 03.32850 23 04 43.81 +07 28 28.1 18.2   704 – Lincoln Laboratory ETS, New Mexico MPS 83892
2003 09 03.34060 23 04 43.22 +07 28 26.8 18.4   704 – Lincoln Laboratory ETS, New Mexico MPS 83892
2003 09 13.40863 22 56 33.54 +06 56 56.1 19.2   608 – Haleakala-AMOS MPS 84432
2003 09 13.41948 22 56 33.02 +06 56 53.8 19.6   608 – Haleakala-AMOS MPS 84432
2003 09 13.42993 22 56 32.48 +06 56 51.6 19.7   608 – Haleakala-AMOS MPS 84432
2003 09 15.29184 22 55 03.34 +06 49 43.0 17.8   644 – Palomar Mountain/NEAT MPS 84432
2003 09 15.36282 22 54 59.84 +06 49 26.1 17.9   644 – Palomar Mountain/NEAT MPS 84432
2003 09 15.42987 22 54 56.58 +06 49 09.9 17.7   644 – Palomar Mountain/NEAT MPS 84432
2003 09 18.29130 22 52 42.74 +06 37 31.8 19.5   608 – Haleakala-AMOS MPS 85997
2003 09 18.30175 22 52 42.25 +06 37 29.0 19.4   608 – Haleakala-AMOS MPS 85997
2003 09 18.31266 22 52 41.73 +06 37 26.2 19.4   608 – Haleakala-AMOS MPS 85997
2003 09 20.23857 22 51 13.69 +06 29 14.7 19.0   704 – Lincoln Laboratory ETS, New Mexico MPS 84976
2003 09 20.25115 22 51 13.08 +06 29 10.6 19.1   704 – Lincoln Laboratory ETS, New Mexico MPS 84976
2003 09 20.26354 22 51 12.49 +06 29 06.9 18.9   704 – Lincoln Laboratory ETS, New Mexico MPS 84976
2003 09 20.27585 22 51 11.92 +06 29 04.8 19.0   704 – Lincoln Laboratory ETS, New Mexico MPS 84976
2003 09 20.28796 22 51 11.40 +06 29 01.2 19.4   704 – Lincoln Laboratory ETS, New Mexico MPS 84976
2003 09 21.23416 22 50 29.05 +06 24 53.6 18.6   704 – Lincoln Laboratory ETS, New Mexico MPS 84976
2003 09 21.24654 22 50 28.48 +06 24 49.4 18.9   704 – Lincoln Laboratory ETS, New Mexico MPS 84976
2003 09 21.26033 22 50 27.89 +06 24 46.6 18.8   704 – Lincoln Laboratory ETS, New Mexico MPS 84976
2003 09 21.27247 22 50 27.31 +06 24 42.7 18.8   704 – Lincoln Laboratory ETS, New Mexico MPS 84976
2003 09 23.42342 22 48 53.57 +06 15 06.2 20.3   608 – Haleakala-AMOS MPS 84976
2003 09 23.43376 22 48 53.11 +06 15 04.1 19.7   608 – Haleakala-AMOS MPS 84976
